Terminal Aerodrome Forecast
Issued by NWS

Home | Current Version | Previous Version | Text Only | Print | Product List | Glossary On
Versions: 1 2 3 4 5 6 7 8 9 10 11 12 13 14 15
245
FTUS44 KLIX 270540
TAFMCB
TAF
KMCB 270540Z 2706/2806 14006KT P6SM BKN250
     FM270900 15007KT P6SM VCTS OVC015CB
     FM271200 15007KT P6SM -SHRA VCTS OVC025CB
      TEMPO 2712/2715 2SM TSRA OVC012CB
     FM271500 17009KT 5SM SHRA VCTS OVC015CB
     FM272000 18008KT P6SM SHRA VCTS OVC040CB
     FM272200 18007KT P6SM SHRA VCTS BKN030CB
     FM280000 16006KT P6SM BKN035 PROB30 2803/2804 4SM TSRA
      OVC003CB=

USA.gov is the U.S. government's official web portal to all federal, state and local government web resources and services.